Regional Weather Roundup
Issued by NWS

Home | Current Version | Previous Version | Graphics & Text | Print | Product List | Glossary On
Versions: 1 2 3 4 5 6 7 8 9 10 11 12 13 14 15 16 17 18 19 20 21 22 23 24 25 26 27 28 29 30 31 32 33 34 35 36 37 38 39 40 41 42 43 44 45 46 47 48 49 50
000
ASUS43 KOAX 160202
RWRNE

WEATHER ROUNDUP FOR NEBRASKA
NATIONAL WEATHER SERVICE OMAHA NE
800 PM CST FRI DEC 15 2017

NOTES: SATELLITE DATA IS BEING USED TO AUGMENT CLOUD COVER ABOVE
       12000 FEET.
       "FAIR" INDICATES FEW OR NO CLOUDS BELOW 12,000 FEET WITH NO
       SIGNIFICANT WEATHER AND/OR OBSTRUCTIONS TO VISIBILITY.


NEZ001>004-019>022-054>056-160300-
NEBRASKA PANHANDLE

CITY           SKY/WX    TMP DP  RH WIND       PRES   REMARKS
SCOTTSBLUFF    CLOUDY    49  10  20 W17       29.78F
ALLIANCE       CLOUDY    44  16  32 W10       29.76F
CHADRON        CLOUDY    40  18  41 SW6       29.72F
GORDON         FAIR      41  19  41 W7        29.70F
KIMBALL        CLOUDY    37   9  30 W13       29.83S WCI  29
SIDNEY         CLOUDY    31  10  41 W8        29.81F WCI  23
$$

NEZ057>060-069>072-079>082-160300-
SOUTHWEST NEBRASKA

CITY           SKY/WX    TMP DP  RH WIND       PRES   REMARKS
NORTH PLATTE   CLOUDY    33  18  53 NW5       29.78S WCI  29
IMPERIAL       CLOUDY    39  10  30 W8        29.80F WCI  33
LEXINGTON      CLOUDY    44  15  30 SW10      29.77F
MCCOOK         CLOUDY    38  11  32 W9        29.80F WCI  31
OGALLALA       CLOUDY    30  14  51 W3        29.79S
$$

NEZ005>010-023>029-035>040-094-160300-
NORTH CENTRAL NEBRASKA

CITY           SKY/WX    TMP DP  RH WIND       PRES   REMARKS
VALENTINE      CLOUDY    41  24  51 W5        29.70R
AINSWORTH      CLOUDY    39  27  61 SW12      29.69S WCI  32
BROKEN BOW     CLOUDY    42  21  43 W6        29.74F
O`NEILL        CLOUDY    37  30  75 SW9       29.69F WCI  31
ORD            CLOUDY    40  24  53 SW13      29.72F WCI  32
THEDFORD       CLOUDY    40  19  41 W5        29.74S
$$

NEZ041-046>049-061>064-073>077-083>087-160300-
SOUTH CENTRAL NEBRASKA

CITY           SKY/WX    TMP DP  RH WIND       PRES   REMARKS
GRAND ISLAND   CLOUDY    43  21  41 SW15      29.77F
AURORA         CLOUDY    39  23  53 SW13      29.77F WCI  31
HASTINGS       CLOUDY    43  16  33 SW9       29.78F
HEBRON         PTCLDY    43  24  46 S13       29.82F
HOLDREGE       CLOUDY    43  17  35 SW12      29.79F
KEARNEY        CLOUDY    41  17  38 SW8       29.78F
YORK           PTCLDY    37  25  60 SW12      29.78F WCI  30
$$

NEZ011>018-030>034-042>045-160300-
NORTHEAST NEBRASKA

CITY           SKY/WX    TMP DP  RH WIND       PRES   REMARKS
NORFOLK        PTCLDY    41  27  57 SW9       29.71F
ALBION         PTCLDY    40  27  59 CALM      29.74S
BLAIR          CLEAR     40  26  58 S10       29.77F WCI  33
COLUMBUS       CLOUDY    41  26  55 SW6       29.76F
FREMONT        PTCLDY    40  26  56 SW6       29.78S
TEKAMAH        PTCLDY    34  22  61 S10       29.77F WCI  26
WAYNE          CLOUDY    37  29  71 SW8       29.71F WCI  31
$$

NEZ050>053-065>068-078-088>093-160300-
SOUTHEAST NEBRASKA

CITY           SKY/WX    TMP DP  RH WIND       PRES   REMARKS
LINCOLN        CLEAR     44  24  45 SW15G25   29.79F
OMAHA EPPLEY   PTCLDY    42  24  49 S10       29.79F
BEATRICE       CLOUDY    42  25  49 S13       29.83F
FALLS CITY     CLOUDY    42  24  49 S17       29.86F
NEBRASKA CITY  CLEAR     42  26  52 SW14      29.81F
PLATTSMOUTH    CLEAR     37  25  60 S12       29.79F WCI  30
$$

NEZ044-045-051>053-067-160300-
OMAHA AREA

CITY           SKY/WX    TMP DP  RH WIND       PRES   REMARKS
OMAHA EPPLEY   PTCLDY    42  24  49 S10       29.79F
BLAIR          CLEAR     40  26  58 S10       29.77F WCI  33
FREMONT        PTCLDY    40  26  56 SW6       29.78S
OFFUTT AFB     CLEAR     29  21  72 CALM      29.79F
PLATTSMOUTH    CLEAR     37  25  60 S12       29.79F WCI  30
WAHOO          FAIR      38  24  57 SW7       29.79S WCI  33
$$




USA.gov is the U.S. government's official web portal to all federal, state and local government web resources and services.